Orbital Elements at Epoch 2459200.5 (2020-Dec-17.0) TDB
Reference: JPL 23 (heliocentric ecliptic J2000)
Element | Value | Uncertainty (1-sigma) | Units |
e | .2422521865343999 | 5.3319e-08 | |
a | 2.661248265453702 | 1.4088e-08 | au |
q | 2.016555054236663 | 1.4287e-07 | au |
i | 2.852243540661918 | 3.9681e-06 | deg |
node | 272.8120512671346 | 0.00011757 | deg |
peri | 66.38973770419882 | 0.00011784 | deg |
M | 170.5825993101583 | 1.0003e-05 | deg |
tp | 2458449.121539724657 (2018-Nov-26.62153972) | 4.096e-05 | TDB |
period | 1585.720037055475 4.34 | 1.2592e-05 3.448e-08 | d yr |
n | .2270262036093612 | 1.8028e-09 | deg/d |
Q | 3.30594147667074 | 1.7501e-08 | au |
|
| | Orbit Determination Parameters
Additional Information
|